Location: Gleizolles
(44.4833°N, 6.7667°E)
Time: 06:36:47
(UTC+00:00)

Transit 4A - Pass Details

Date: 26 June 2024
Orbit: 870 x 973 km, 66.8° (Epoch: 14 July)

Event Time Altitude Azimuth Distance (km) Brightness Sun altitude
Rises 20:57:49 0° 211° (SSW) 3,460 10.7 -13.2°
Reaches altitude 10° 21:00:18 10° 212° (SSW) 2,518 10.0 -13.4°
Maximum altitude 21:06:07 85° 302° (WNW) 879 7.8 -14.0°
Drops below altitude 10° 21:11:58 10° 31° (NNE) 2,528 10.5 -14.6°
Sets 21:14:28 0° 32° (NNE) 3,476 11.2 -14.9°
